Jacksonville, IL

8:09 PM CST on January 22, 2018 (GMT -0600)
Jacksonville Municipal

Weather History for KIJX - November, 2013

Change the Weather History Date:

Saturday, November 16, 2013

  Actual Average (KSPI) Record (KSPI)
Temperature  
Mean Temperature 54 °F -  
Max Temperature 61 °F 50 °F 76 °F (2001)
Min Temperature 46 °F 34 °F 7 °F (1959)
Degree Days  
Heating Degree Days 12    
Growing Degree Days 4 (Base 50)    
Moisture  
Dew Point 51 °F    
Average Humidity 82    
Maximum Humidity 87    
Minimum Humidity 72    
Precipitation  
Precipitation 0.00 in - - ()
Sea Level Pressure  
Sea Level Pressure 29.74 in    
Wind  
Wind Speed 14 mph (South)    
Max Wind Speed 24 mph    
Max Gust Speed 36 mph    
Visibility 10 miles    
Events Rain , Thunderstorm    
Averages and records for this station are not official NWS values.
T = Trace of Precipitation, MM = Missing Value Source: NWS Daily Summary

Daily Weather History Graph

Daily Weather History Graph

Search for Another Location

Airport or City:

Trip Planner

Search our weather history database for the weather conditions in past years. The results will help you decide how hot, cold, wet, or windy it might be!

Date:

Astronomy

Nov. 16, 2013 Rise Set
Actual Time 6:47 AM CST 4:44 PM CST
Civil Twilight 6:18 AM CST 5:13 PM CST
Nautical Twilight 5:45 AM CST 5:45 PM CST
Astronomical Twilight 5:13 AM CST 6:17 PM CST
Moon 4:19 PM CST (11/16) 5:43 AM CST (11/16)
Length of Visible Light 10h 55m
Length of Day
9h 57m
Waxing Gibbous, 99% of the Moon is Illuminated
Nov 16
Waxing Gibbous
Nov 17
Full
Nov 25
Last Quarter
Dec 2
New
Dec 9
First Quarter

Hourly Weather History & Observations

Time (CST) Temp. Windchill Dew Point Humidity Pressure Visibility Wind Dir Wind Speed Gust Speed Precip Events Conditions
12:15 AM 46.8 °F - 41.4 °F 81% 29.91 in 10.0 mi South 12.7 mph - N/A   Overcast
12:35 AM 46.4 °F 41.1 °F 41.5 °F 83% 29.90 in 10.0 mi South 11.5 mph 16.1 mph N/A   Scattered Clouds
12:55 AM 46.6 °F - 42.1 °F 84% 29.90 in 10.0 mi South 5.8 mph - N/A   Clear
1:15 AM 47.3 °F - 42.8 °F 84% 29.90 in 10.0 mi South 9.2 mph 18.4 mph N/A   Mostly Cloudy
1:35 AM 47.8 °F - 43.2 °F 84% 29.89 in 10.0 mi South 13.8 mph 19.6 mph N/A   Overcast
1:55 AM 48.4 °F - 43.7 °F 84% 29.88 in 10.0 mi SSE 12.7 mph 18.4 mph N/A   Overcast
2:15 AM 48.2 °F - 43.3 °F 83% 29.87 in 10.0 mi SSE 10.4 mph 17.3 mph N/A   Scattered Clouds
2:35 AM 47.8 °F - 43.3 °F 84% 29.87 in 10.0 mi SSE 12.7 mph - N/A   Clear
2:55 AM 47.7 °F - 43.2 °F 84% 29.87 in 10.0 mi South 12.7 mph 18.4 mph N/A   Clear
3:15 AM 47.5 °F - 43.3 °F 86% 29.86 in 10.0 mi South 11.5 mph - N/A   Clear
3:35 AM 47.5 °F - 43.7 °F 87% 29.87 in 10.0 mi South 12.7 mph 18.4 mph N/A   Scattered Clouds
3:55 AM 48.2 °F - 44.1 °F 86% 29.87 in 10.0 mi South 10.4 mph - N/A   Overcast
4:15 AM 49.1 °F - 44.6 °F 84% 29.86 in 10.0 mi South 6.9 mph 19.6 mph N/A   Overcast
4:35 AM 49.5 °F - 45.0 °F 84% 29.86 in 10.0 mi South 6.9 mph - N/A   Overcast
4:55 AM 50.0 °F - 45.3 °F 84% 29.85 in 10.0 mi South 12.7 mph - N/A   Overcast
5:15 AM 50.2 °F - 45.5 °F 84% 29.84 in 10.0 mi SSE 10.4 mph 20.7 mph N/A   Overcast
5:35 AM 50.5 °F - 45.9 °F 84% 29.84 in 10.0 mi South 12.7 mph 17.3 mph N/A   Overcast
5:55 AM 50.9 °F - 46.4 °F 85% 29.84 in 10.0 mi South 10.4 mph 16.1 mph N/A   Overcast
6:15 AM 51.1 °F - 46.9 °F 86% 29.83 in 10.0 mi SSE 6.9 mph - N/A   Mostly Cloudy
6:35 AM 52.2 °F - 47.8 °F 85% 29.83 in 10.0 mi South 13.8 mph 18.4 mph N/A   Overcast
6:55 AM 52.7 °F - 48.2 °F 85% 29.83 in 10.0 mi SSE 12.7 mph 19.6 mph N/A   Mostly Cloudy
7:15 AM 52.3 °F - 48.2 °F 86% 29.82 in 10.0 mi South 13.8 mph - N/A   Clear
7:35 AM 52.7 °F - 48.4 °F 85% 29.82 in 10.0 mi SSE 15.0 mph 21.9 mph N/A   Clear
7:55 AM 53.1 °F - 49.1 °F 86% 29.81 in 10.0 mi SSE 10.4 mph 20.7 mph N/A   Clear
8:15 AM 53.6 °F - 49.5 °F 86% 29.81 in 10.0 mi SSE 18.4 mph 28.8 mph N/A   Scattered Clouds
8:35 AM 54.5 °F - 50.2 °F 85% 29.81 in 10.0 mi SSE 16.1 mph 26.5 mph N/A   Mostly Cloudy
8:55 AM 55.4 °F - 50.5 °F 84% 29.80 in 10.0 mi South 19.6 mph 26.5 mph N/A   Mostly Cloudy
9:15 AM 56.7 °F - 51.3 °F 82% 29.79 in 10.0 mi SSE 19.6 mph 25.3 mph N/A   Scattered Clouds
9:35 AM 57.2 °F - 51.8 °F 82% 29.78 in 10.0 mi South 16.1 mph 25.3 mph N/A   Scattered Clouds
9:55 AM 59.0 °F - 52.2 °F 78% 29.78 in 10.0 mi South 21.9 mph 27.6 mph N/A   Scattered Clouds
10:15 AM 59.0 °F - 52.0 °F 78% 29.78 in 10.0 mi South 17.3 mph 29.9 mph N/A   Scattered Clouds
10:35 AM 60.1 °F - 52.2 °F 75% 29.78 in 10.0 mi SSE 20.7 mph 29.9 mph N/A   Scattered Clouds
10:55 AM 59.9 °F - 51.8 °F 75% 29.77 in 10.0 mi South 21.9 mph 31.1 mph N/A   Scattered Clouds
11:15 AM 60.3 °F - 52.0 °F 74% 29.78 in 10.0 mi South 21.9 mph 31.1 mph N/A   Mostly Cloudy
11:35 AM 60.3 °F - 52.3 °F 75% 29.76 in 10.0 mi South 17.3 mph 28.8 mph N/A   Mostly Cloudy
11:55 AM 60.8 °F - 52.2 °F 73% 29.75 in 10.0 mi South 18.4 mph 29.9 mph N/A   Scattered Clouds
12:15 PM 60.8 °F - 52.2 °F 73% 29.74 in 10.0 mi South 15.0 mph 27.6 mph N/A   Scattered Clouds
12:35 PM 61.3 °F - 52.5 °F 73% 29.72 in 10.0 mi South 18.4 mph 24.2 mph N/A   Scattered Clouds
12:55 PM 61.7 °F - 52.7 °F 72% 29.71 in 10.0 mi South 19.6 mph 25.3 mph N/A   Scattered Clouds
1:15 PM 61.9 °F - 52.9 °F 72% 29.71 in 10.0 mi South 16.1 mph 28.8 mph N/A   Scattered Clouds
1:35 PM 61.0 °F - 53.1 °F 75% 29.70 in 10.0 mi South 17.3 mph 27.6 mph N/A   Light Drizzle
1:55 PM 61.0 °F - 53.2 °F 76% 29.70 in 10.0 mi South 17.3 mph 23.0 mph N/A   Scattered Clouds
2:15 PM 60.8 °F - 53.6 °F 77% 29.70 in 10.0 mi South 13.8 mph 25.3 mph N/A Rain Light Rain
2:35 PM 59.5 °F - 54.1 °F 82% 29.67 in 7.0 mi SSE 13.8 mph 20.7 mph N/A Rain Light Rain
2:55 PM 59.0 °F - 54.3 °F 84% 29.65 in 10.0 mi SSE 13.8 mph 21.9 mph N/A Rain Light Rain
3:15 PM 59.2 °F - 54.1 °F 83% 29.63 in 10.0 mi SSE 20.7 mph 27.6 mph N/A Rain Light Rain
3:35 PM 59.0 °F - 54.3 °F 84% 29.61 in 10.0 mi SSE 24.2 mph 35.7 mph N/A   Mostly Cloudy
3:55 PM 59.0 °F - 54.1 °F 84% 29.60 in 10.0 mi SSE 24.2 mph 32.2 mph N/A Rain Light Rain
4:15 PM 58.6 °F - 53.8 °F 84% 29.60 in 10.0 mi SSE 21.9 mph 29.9 mph N/A   Mostly Cloudy
4:35 PM 58.5 °F - 53.8 °F 84% 29.61 in 10.0 mi SSE 18.4 mph 29.9 mph N/A   Overcast
4:55 PM 58.3 °F - 53.8 °F 85% 29.62 in 10.0 mi South 18.4 mph 28.8 mph N/A   Mostly Cloudy
5:15 PM 58.5 °F - 54.0 °F 85% 29.62 in 10.0 mi South 20.7 mph 27.6 mph N/A   Overcast
5:35 PM 59.0 °F - 54.1 °F 84% 29.63 in 10.0 mi South 19.6 mph 31.1 mph N/A   Overcast
5:55 PM 59.0 °F - 54.5 °F 85% 29.64 in 10.0 mi South 21.9 mph 31.1 mph N/A Thunderstorm Mostly Cloudy
6:15 PM 59.0 °F - 54.5 °F 85% 29.64 in 10.0 mi South 20.7 mph 27.6 mph N/A   Mostly Cloudy
6:35 PM 59.2 °F - 54.5 °F 84% 29.64 in 10.0 mi South 15.0 mph 27.6 mph N/A   Mostly Cloudy
6:55 PM 59.4 °F - 54.7 °F 84% 29.65 in 10.0 mi South 15.0 mph 23.0 mph N/A   Mostly Cloudy
7:15 PM 59.5 °F - 54.7 °F 84% 29.65 in 10.0 mi South 11.5 mph 20.7 mph N/A   Overcast
7:35 PM 59.9 °F - 54.9 °F 83% 29.66 in 10.0 mi Calm Calm - N/A   Overcast
7:55 PM 59.9 °F - 54.9 °F 83% 29.66 in 10.0 mi Calm Calm - N/A   Overcast
8:15 PM 60.1 °F - 55.0 °F 83% 29.65 in 10.0 mi South 12.7 mph - N/A   Overcast
8:35 PM 59.9 °F - 55.0 °F 84% 29.65 in 10.0 mi South 11.5 mph 18.4 mph N/A   Scattered Clouds
8:55 PM 60.3 °F - 55.4 °F 84% 29.65 in 10.0 mi South 15.0 mph 18.4 mph N/A   Mostly Cloudy
9:15 PM 60.4 °F - 55.4 °F 83% 29.64 in 10.0 mi South 15.0 mph 25.3 mph N/A   Scattered Clouds
9:35 PM 60.8 °F - 55.4 °F 82% 29.63 in 10.0 mi South 12.7 mph 19.6 mph N/A Thunderstorm Clear
9:55 PM 60.8 °F - 55.4 °F 82% 29.63 in 10.0 mi SSE 9.2 mph 16.1 mph N/A   Clear
10:15 PM 60.3 °F - 55.2 °F 83% 29.63 in 10.0 mi SSE 11.5 mph - N/A   Clear
10:35 PM 60.6 °F - 55.4 °F 83% 29.62 in 10.0 mi SSE 15.0 mph 21.9 mph N/A   Clear
10:55 PM 60.6 °F - 55.4 °F 83% 29.61 in 10.0 mi South 12.7 mph 18.4 mph N/A   Clear
11:15 PM 60.8 °F - 55.6 °F 83% 29.62 in 10.0 mi South 13.8 mph 18.4 mph N/A   Clear
11:35 PM 61.0 °F - 55.8 °F 83% 29.61 in 10.0 mi South 13.8 mph 19.6 mph N/A   Clear
11:55 PM 61.0 °F - 56.3 °F 85% 29.60 in 10.0 mi South 9.2 mph 18.4 mph N/A   Clear